Ann Arbor, MI

10:12 PM EDT on May 29, 2017 (GMT -0400)
Ann Arbor Municipal

Weather History for KARB - March, 2014

Change the Weather History Date:

Monday, March 24, 2014

  Actual Average Record
Temperature  
Mean Temperature 22 °F -  
Max Temperature 32 °F 45 °F 75 °F (2017)
Min Temperature 15 °F 26 °F 15 °F (2014)
Degree Days  
Heating Degree Days 42    
Moisture  
Dew Point 9 °F    
Average Humidity 57    
Maximum Humidity 78    
Minimum Humidity 42    
Precipitation  
Precipitation 0.00 in - - ()
Sea Level Pressure  
Sea Level Pressure 30.27 in    
Wind  
Wind Speed 7 mph (WNW)    
Max Wind Speed 17 mph    
Max Gust Speed 23 mph    
Visibility 10 miles    
Events Snow    
Averages and records for this station are not official NWS values.
T = Trace of Precipitation, MM = Missing Value Source: NWS Daily Summary

Daily Weather History Graph

Daily Weather History Graph

Search for Another Location

Airport or City:

Trip Planner

Search our weather history database for the weather conditions in past years. The results will help you decide how hot, cold, wet, or windy it might be!

Date:

Astronomy

Mar. 24, 2014 Rise Set
Actual Time 7:31 AM EDT 7:51 PM EDT
Civil Twilight 7:03 AM EDT 8:19 PM EDT
Nautical Twilight 6:30 AM EDT 8:52 PM EDT
Astronomical Twilight 5:56 AM EDT 9:26 PM EDT
Moon 3:06 AM EDT (3/24) 1:10 PM EDT (3/24)
Length of Visible Light 13h 16m
Length of Day
12h 20m
Last Quarter, 43% of the Moon is Illuminated
Mar 24
Last Quarter
Mar 30
New
Apr 7
First Quarter
Apr 15
Full
Apr 22
Last Quarter

Hourly Weather History & Observations

Time (EDT) Temp. Windchill Dew Point Humidity Pressure Visibility Wind Dir Wind Speed Gust Speed Precip Events Conditions
12:53 AM 19.9 °F 13.4 °F 8.1 °F 60% 30.36 in 10.0 mi WNW 4.6 mph - N/A   Partly Cloudy
1:53 AM 19.0 °F 11.1 °F 9.0 °F 65% 30.35 in 10.0 mi WNW 5.8 mph - N/A   Overcast
2:33 AM 19.9 °F 12.1 °F 9.0 °F 62% 30.32 in 10.0 mi NNW 5.8 mph - N/A   Mostly Cloudy
2:53 AM 19.0 °F 8.2 °F 7.0 °F 59% 30.36 in 10.0 mi North 9.2 mph - N/A   Partly Cloudy
3:53 AM 17.1 °F 8.7 °F 7.0 °F 65% 30.35 in 10.0 mi NNW 5.8 mph - N/A   Clear
4:53 AM 16.0 °F 7.4 °F 7.0 °F 68% 30.35 in 10.0 mi North 5.8 mph - N/A   Clear
5:53 AM 15.1 °F 6.4 °F 7.0 °F 70% 30.35 in 10.0 mi NNW 5.8 mph - N/A   Clear
6:53 AM 15.1 °F 6.4 °F 7.0 °F 70% 30.37 in 10.0 mi NW 5.8 mph - N/A   Clear
7:53 AM 15.1 °F 9.4 °F 7.0 °F 70% 30.36 in 10.0 mi NNW 3.5 mph - N/A   Clear
8:53 AM 18.0 °F 11.1 °F 9.0 °F 68% 30.37 in 10.0 mi WNW 4.6 mph - N/A   Clear
9:53 AM 19.9 °F - 8.1 °F 60% 30.34 in 10.0 mi Calm Calm - N/A   Clear
10:53 AM 21.9 °F 15.7 °F 7.0 °F 53% 30.32 in 10.0 mi Variable 4.6 mph - N/A   Clear
11:53 AM 24.1 °F 17.0 °F 6.1 °F 46% 30.31 in 10.0 mi WSW 5.8 mph - N/A   Mostly Cloudy
12:53 PM 25.0 °F 17.1 °F 8.1 °F 49% 30.30 in 10.0 mi WSW 6.9 mph 16.1 mph N/A   Overcast
1:53 PM 28.0 °F 15.7 °F 10.0 °F 47% 30.26 in 10.0 mi West 17.3 mph - N/A   Overcast
2:53 PM 28.0 °F 18.1 °F 10.9 °F 49% 30.22 in 9.0 mi WSW 11.5 mph - 0.00 in Snow Light Snow
3:53 PM 28.9 °F 19.2 °F 10.9 °F 47% 30.19 in 10.0 mi WSW 11.5 mph - 0.00 in   Overcast
4:53 PM 30.0 °F 19.1 °F 10.9 °F 45% 30.17 in 10.0 mi West 15.0 mph - N/A   Overcast
5:53 PM 30.9 °F 20.2 °F 10.0 °F 42% 30.16 in 10.0 mi West 15.0 mph 21.9 mph N/A   Mostly Cloudy
6:53 PM 30.0 °F 19.1 °F 10.0 °F 43% 30.15 in 10.0 mi West 15.0 mph 23.0 mph N/A   Mostly Cloudy
7:53 PM 27.0 °F 16.1 °F 8.1 °F 45% 30.14 in 10.0 mi West 12.7 mph - N/A   Clear
8:53 PM 26.1 °F 15.6 °F 6.1 °F 43% 30.15 in 10.0 mi WNW 11.5 mph - N/A   Clear
9:53 PM 24.1 °F 16.0 °F 8.1 °F 51% 30.14 in 10.0 mi NW 6.9 mph - N/A   Clear
10:53 PM 21.0 °F - 12.9 °F 71% 30.14 in 10.0 mi Calm Calm - N/A   Clear
11:53 PM 18.0 °F - 12.0 °F 78% 30.13 in 10.0 mi Calm Calm - N/A   Clear